Notices

What's New in latest Release from April 7th, 2021:

- Updated Glossary, including Speed of Maximum Gust, and Total Hourly Precipitation

- Updated national and regional climate services offices contacts and prices information

- Addition of station inventory lists for 1981-2010, 1971-2000, and 1961-1990 Normals.

If you haven't already, please take our survey and provide feedback about our website: https://eccc.sondage-survey.ca/f/LanguageSelection.aspx?s=442ca660-fcf1-47c0-95a9-59707d6fd709

Hourly Data Report for September 09, 2003

TORONTO CITY
ONTARIO

43°40'00.000" N
79°24'00.000" W
112.50 m
6158355
71508
XTO

Download Data

Hourly Data (September 2003)
Hourly Data Report for September 9, 2003
TIME
LST
Temp Definition
°C
Dew Point Definition
°C
Rel Hum Definition
%
Precip. Amount Definition
mm

Wind Dir Definition
10's deg

Wind Spd Definition
km/h
Visibility Definition
km
Stn Press Definition
kPa
Hmdx Definition


Wind Chill Definition


Weather Definition


00:00 16.4 12.7 79   LegendMM LegendMM LegendMM 100.99     LegendNANA
01:00 16.1 12.6 80   LegendMM LegendMM LegendMM 101.01     LegendNANA
02:00 15.7 11.7 77   LegendMM LegendMM LegendMM 101.04     LegendNANA
03:00 15.6 11.1 75   LegendMM LegendMM LegendMM 101.05     LegendNANA
04:00 15.1 10.4 73   LegendMM LegendMM LegendMM 101.06     LegendNANA
05:00 14.3 9.6 73   LegendMM LegendMM LegendMM 101.09     LegendNANA
06:00 13.7 8.7 72   LegendMM LegendMM LegendMM 101.13     LegendNANA
07:00 LegendMM LegendMM LegendMM   LegendMM LegendMM LegendMM LegendMM     LegendNANA
08:00 16.2 9.1 63   LegendMM LegendMM LegendMM 101.18     LegendNANA
09:00 18.5 11.0 62   LegendMM LegendMM LegendMM 101.20     LegendNANA
10:00 19.5 12.5 64   LegendMM LegendMM LegendMM 101.22     LegendNANA
11:00 20.0 13.2 65   LegendMM LegendMM LegendMM 101.20     LegendNANA
12:00 20.0 13.5 66   LegendMM LegendMM LegendMM 101.19     LegendNANA
13:00 19.9 13.3 66   LegendMM LegendMM LegendMM 101.15     LegendNANA
14:00 20.8 13.3 62   LegendMM LegendMM LegendMM 101.12     LegendNANA
15:00 21.1 12.3 57   LegendMM LegendMM LegendMM 101.07     LegendNANA
16:00 20.4 12.4 60   LegendMM LegendMM LegendMM 101.04     LegendNANA
17:00 20.5 10.9 54   LegendMM LegendMM LegendMM 101.00     LegendNANA
18:00 19.7 11.8 60   LegendMM LegendMM LegendMM 101.01     LegendNANA
19:00 19.0 12.5 66   LegendMM LegendMM LegendMM 101.01     LegendNANA
20:00 18.4 13.7 74   LegendMM LegendMM LegendMM 101.06     LegendNANA
21:00 18.5 14.1 76   LegendMM LegendMM LegendMM 101.09     LegendNANA
22:00 18.0 14.4 79   LegendMM LegendMM LegendMM 101.10     LegendNANA
23:00 17.9 14.0 78   LegendMM LegendMM LegendMM 101.07     LegendNANA

Notes on Data Quality.

Legend

  • E = Estimated
  • M = Missing
  • NA = Not Available*
  • [empty] = Indicates an unobserved value
Date modified: